TimeEDT,TemperatureF,Dew PointF,Humidity,Sea Level PressureIn,VisibilityMPH,Wind Direction,Wind SpeedMPH,Gust SpeedMPH,PrecipitationIn,Events,Conditions,WindDirDegrees,DateUTC
12:05 AM,39.2,32.0,75,29.97,10.0,West,19.6,27.6,0.00,,Mostly Cloudy,260,2013-04-20 04:05:00
12:53 AM,37.9,32.0,79,30.00,10.0,WSW,8.1,-,0.00,,Scattered Clouds,240,2013-04-20 04:53:00
1:53 AM,39.0,32.0,76,30.01,10.0,WSW,11.5,-,N/A,,Mostly Cloudy,240,2013-04-20 05:53:00
2:53 AM,37.9,30.9,76,30.02,10.0,WSW,9.2,-,N/A,,Scattered Clouds,250,2013-04-20 06:53:00
3:53 AM,37.0,30.9,79,30.03,10.0,West,9.2,-,N/A,,Clear,260,2013-04-20 07:53:00
4:53 AM,36.0,28.9,76,30.05,10.0,West,9.2,-,N/A,,Clear,260,2013-04-20 08:53:00
5:53 AM,35.1,27.0,72,30.07,10.0,West,6.9,-,N/A,,Clear,280,2013-04-20 09:53:00
6:53 AM,33.1,26.1,75,30.10,10.0,West,6.9,-,N/A,,Clear,260,2013-04-20 10:53:00
7:53 AM,36.0,27.0,70,30.14,10.0,West,6.9,-,N/A,,Clear,270,2013-04-20 11:53:00
8:53 AM,37.9,28.0,68,30.17,10.0,WNW,13.8,-,N/A,,Clear,290,2013-04-20 12:53:00
9:53 AM,39.9,28.0,63,30.19,10.0,West,10.4,-,N/A,,Mostly Cloudy,280,2013-04-20 13:53:00
10:25 AM,41.0,26.6,57,30.19,10.0,WNW,10.4,-,N/A,,Mostly Cloudy,290,2013-04-20 14:25:00
10:53 AM,43.0,27.0,53,30.22,10.0,West,13.8,-,N/A,,Scattered Clouds,280,2013-04-20 14:53:00
11:53 AM,44.1,27.0,51,30.24,10.0,West,13.8,-,N/A,,Mostly Cloudy,280,2013-04-20 15:53:00
12:53 PM,46.0,28.0,50,30.25,10.0,WNW,12.7,-,N/A,,Mostly Cloudy,290,2013-04-20 16:53:00
1:53 PM,46.9,27.0,46,30.26,10.0,West,11.5,-,N/A,,Overcast,280,2013-04-20 17:53:00
2:53 PM,46.9,27.0,46,30.27,10.0,NW,12.7,-,N/A,,Mostly Cloudy,310,2013-04-20 18:53:00
3:53 PM,48.0,28.0,46,30.28,10.0,West,11.5,16.1,N/A,,Mostly Cloudy,280,2013-04-20 19:53:00
4:53 PM,51.1,28.0,41,30.28,10.0,West,13.8,-,N/A,,Mostly Cloudy,280,2013-04-20 20:53:00
5:53 PM,48.9,25.0,39,30.30,10.0,NNW,4.6,-,N/A,,Mostly Cloudy,340,2013-04-20 21:53:00
6:53 PM,48.0,24.1,39,30.30,10.0,NNW,10.4,-,N/A,,Clear,340,2013-04-20 22:53:00
7:53 PM,45.0,25.0,46,30.31,10.0,North,9.2,-,N/A,,Clear,350,2013-04-20 23:53:00
8:53 PM,41.0,26.1,55,30.34,10.0,North,4.6,-,N/A,,Clear,10,2013-04-21 00:53:00
9:53 PM,37.9,27.0,65,30.37,10.0,NNE,6.9,-,N/A,,Clear,30,2013-04-21 01:53:00
10:53 PM,37.9,27.0,65,30.38,10.0,NNE,6.9,-,N/A,,Clear,30,2013-04-21 02:53:00
11:53 PM,37.0,26.1,65,30.40,10.0,NE,4.6,-,N/A,,Clear,40,2013-04-21 03:53:00